| time (UTC) | temp F | wind direction | speed MPH | gust MPH | rain 1hr in | rain 24hr in | rain mn in | humidity % | barometer mb |
| 20260506222023 | 74 | 316 | 2.0 | 6.0 | 0.00 | 0.00 | 0.00 | 39 | 1016.5 |
| 20260506221519 | 73 | 359 | 0.0 | 10.0 | 0.00 | 0.00 | 0.00 | 39 | 1016.6 |
| 20260506221119 | 73 | 359 | 1.0 | 10.0 | 0.00 | 0.00 | 0.00 | 40 | 1016.7 |
| 20260506220518 | 73 | 309 | 1.0 | 7.0 | 0.00 | 0.00 | 0.00 | 40 | 1016.8 |
| 20260506220026 | 73 | 27 | 0.0 | 8.0 | 0.00 | 0.00 | 0.00 | 40 | 1016.9 |
| 20260506215522 | 73 | 54 | 2.0 | 8.0 | 0.00 | 0.00 | 0.00 | 40 | 1017.0 |
| 20260506215019 | 73 | 328 | 0.0 | 6.0 | 0.00 | 0.00 | 0.00 | 40 | 1017.0 |
| 20260506214518 | 72 | 23 | 1.0 | 8.0 | 0.00 | 0.00 | 0.00 | 41 | 1017.1 |
| 20260506214018 | 71 | 40 | 2.0 | 9.0 | 0.00 | 0.00 | 0.00 | 41 | 1017.1 |
| 20260506213518 | 72 | 323 | 5.0 | 10.0 | 0.00 | 0.00 | 0.00 | 40 | 1017.1 |
| 20260506213018 | 72 | 310 | 2.0 | 10.0 | 0.00 | 0.00 | 0.00 | 41 | 1017.0 |
| 20260506212621 | 72 | 310 | 2.0 | 7.0 | 0.00 | 0.00 | 0.00 | 41 | 1017.1 |
| 20260506212118 | 72 | 296 | 1.0 | 6.0 | 0.00 | 0.00 | 0.00 | 41 | 1017.1 |
| 20260506211520 | 71 | 25 | 0.0 | 6.0 | 0.00 | 0.00 | 0.00 | 41 | 1017.3 |
| 20260506211018 | 72 | 336 | 1.0 | 6.0 | 0.00 | 0.00 | 0.00 | 41 | 1017.3 |
| 20260506210518 | 72 | 336 | 0.0 | 3.0 | 0.00 | 0.00 | 0.00 | 40 | 1017.5 |
| 20260506210024 | 70 | 359 | 0.0 | 5.0 | 0.00 | 0.00 | 0.00 | 43 | 1017.4 |
| 20260506205518 | 70 | 350 | 1.0 | 8.0 | 0.00 | 0.00 | 0.00 | 42 | 1017.5 |
| 20260506205018 | 71 | 359 | 2.0 | 9.0 | 0.00 | 0.00 | 0.00 | 40 | 1017.5 |
| 20260506204519 | 70 | 191 | 0.0 | 9.0 | 0.00 | 0.00 | 0.00 | 43 | 1017.5 |
| 20260506204022 | 70 | 316 | 0.0 | 4.0 | 0.00 | 0.00 | 0.00 | 43 | 1017.6 |
| 20260506203520 | 69 | 297 | 1.0 | 7.0 | 0.00 | 0.00 | 0.00 | 43 | 1017.7 |
| 20260506203019 | 69 | 289 | 0.0 | 8.0 | 0.00 | 0.00 | 0.00 | 43 | 1017.8 |
| 20260506202627 | 69 | 330 | 0.0 | 8.0 | 0.00 | 0.00 | 0.00 | 44 | 1017.8 |
| 20260506202018 | 69 | 321 | 1.0 | 9.0 | 0.00 | 0.00 | 0.00 | 45 | 1017.9 |
| 20260506201528 | 70 | 321 | 1.0 | 9.0 | 0.00 | 0.00 | 0.00 | 43 | 1017.9 |
| 20260506201019 | 69 | 33 | 1.0 | 7.0 | 0.00 | 0.00 | 0.00 | 45 | 1018.0 |
| 20260506200518 | 68 | 195 | 0.0 | 7.0 | 0.00 | 0.00 | 0.00 | 46 | 1017.9 |
| 20260506200018 | 67 | 314 | 0.0 | 7.0 | 0.00 | 0.00 | 0.00 | 47 | 1018.2 |
| 20260506195519 | 67 | 295 | 1.0 | 7.0 | 0.00 | 0.00 | 0.00 | 48 | 1018.1 |
| 20260506195018 | 67 | 308 | 0.0 | 10.0 | 0.00 | 0.00 | 0.00 | 46 | 1018.2 |
| 20260506194518 | 67 | 12 | 1.0 | 10.0 | 0.00 | 0.00 | 0.00 | 48 | 1018.1 |
| 20260506194022 | 67 | 305 | 2.0 | 9.0 | 0.00 | 0.00 | 0.00 | 47 | 1018.2 |
| 20260506193518 | 67 | 306 | 3.0 | 7.0 | 0.00 | 0.00 | 0.00 | 46 | 1018.2 |
| 20260506193024 | 67 | 359 | 2.0 | 5.0 | 0.00 | 0.00 | 0.00 | 46 | 1018.3 |
| 20260506192518 | 67 | 314 | 0.0 | 4.0 | 0.00 | 0.00 | 0.00 | 47 | 1018.4 |
| 20260506192021 | 66 | 315 | 0.0 | 6.0 | 0.00 | 0.00 | 0.00 | 48 | 1018.6 |
| 20260506191519 | 66 | 290 | 0.0 | 10.0 | 0.00 | 0.00 | 0.00 | 49 | 1018.7 |
| 20260506191018 | 65 | 339 | 3.0 | 12.0 | 0.00 | 0.00 | 0.00 | 51 | 1018.7 |
| 20260506190519 | 66 | 23 | 2.0 | 12.0 | 0.00 | 0.00 | 0.00 | 50 | 1018.8 |
| 20260506190026 | 65 | 318 | 1.0 | 10.0 | 0.00 | 0.00 | 0.00 | 52 | 1018.8 |
| 20260506185519 | 65 | 289 | 1.0 | 12.0 | 0.00 | 0.00 | 0.00 | 50 | 1018.8 |
| 20260506185018 | 66 | 349 | 4.0 | 12.0 | 0.00 | 0.00 | 0.00 | 49 | 1018.8 |
| 20260506184521 | 65 | 293 | 0.0 | 7.0 | 0.00 | 0.00 | 0.00 | 51 | 1018.9 |
| 20260506184018 | 65 | 310 | 1.0 | 8.0 | 0.00 | 0.00 | 0.00 | 53 | 1018.9 |
| 20260506183520 | 64 | 345 | 2.0 | 8.0 | 0.00 | 0.00 | 0.00 | 53 | 1018.9 |
| 20260506183018 | 64 | 318 | 1.0 | 8.0 | 0.00 | 0.00 | 0.00 | 53 | 1018.9 |
| 20260506182518 | 64 | 346 | 5.0 | 9.0 | 0.00 | 0.00 | 0.00 | 53 | 1018.9 |
| 20260506182020 | 64 | 38 | 1.0 | 8.0 | 0.00 | 0.00 | 0.00 | 54 | 1018.9 |
| 20260506181519 | 63 | 312 | 1.0 | 10.0 | 0.00 | 0.00 | 0.00 | 57 | 1018.9 |
| 20260506181018 | 63 | 347 | 3.0 | 10.0 | 0.00 | 0.00 | 0.00 | 55 | 1018.9 |
| 20260506180518 | 63 | 303 | 1.0 | 7.0 | 0.00 | 0.00 | 0.00 | 55 | 1018.8 |
| 20260506180024 | 63 | 47 | 0.0 | 8.0 | 0.00 | 0.00 | 0.00 | 55 | 1018.9 |
| 20260506175518 | 63 | 10 | 1.0 | 10.0 | 0.00 | 0.00 | 0.00 | 56 | 1018.8 |
| 20260506175018 | 62 | 15 | 1.0 | 10.0 | 0.00 | 0.00 | 0.00 | 58 | 1018.9 |
| 20260506174619 | 62 | 343 | 2.0 | 10.0 | 0.00 | 0.00 | 0.00 | 57 | 1018.8 |
| 20260506174019 | 62 | 359 | 4.0 | 7.0 | 0.00 | 0.00 | 0.00 | 58 | 1018.9 |
| 20260506173519 | 63 | 45 | 2.0 | 6.0 | 0.00 | 0.00 | 0.00 | 57 | 1018.9 |
| 20260506173018 | 62 | 350 | 0.0 | 6.0 | 0.00 | 0.00 | 0.00 | 58 | 1019.0 |
| 20260506172518 | 62 | 12 | 0.0 | 7.0 | 0.00 | 0.00 | 0.00 | 58 | 1019.1 |
| 20260506172018 | 61 | 39 | 4.0 | 7.0 | 0.00 | 0.00 | 0.00 | 60 | 1019.0 |
| 20260506171533 | 61 | 40 | 0.0 | 6.0 | 0.00 | 0.00 | 0.00 | 60 | 1019.1 |
| 20260506171018 | 61 | 359 | 2.0 | 6.0 | 0.00 | 0.00 | 0.00 | 61 | 1019.0 |
| 20260506170522 | 60 | 14 | 1.0 | 6.0 | 0.00 | 0.00 | 0.00 | 61 | 1019.0 |
| 20260506170020 | 60 | 343 | 0.0 | 8.0 | 0.00 | 0.00 | 0.00 | 64 | 1019.0 |
| 20260506165018 | 60 | 334 | 1.0 | 6.0 | 0.00 | 0.00 | 0.00 | 65 | 1019.1 |
| 20260506164523 | 60 | 359 | 2.0 | 6.0 | 0.00 | 0.00 | 0.00 | 62 | 1019.1 |
| 20260506164019 | 60 | 245 | 0.0 | 2.0 | 0.00 | 0.00 | 0.00 | 62 | 1019.1 |
| 20260506163518 | 59 | 245 | 0.0 | 0.0 | 0.00 | 0.00 | 0.00 | 65 | 1019.1 |
| 20260506163019 | 59 | 245 | 0.0 | 0.0 | 0.00 | 0.00 | 0.00 | 67 | 1019.2 |
| 20260506162518 | 57 | 245 | 0.0 | 0.0 | 0.00 | 0.00 | 0.00 | 69 | 1019.3 |
| 20260506162019 | 56 | 245 | 0.0 | 0.0 | 0.00 | 0.00 | 0.00 | 70 | 1019.2 |
| 20260506161519 | 55 | 245 | 0.0 | 0.0 | 0.00 | 0.00 | 0.00 | 72 | 1019.1 |
| 20260506161018 | 55 | 245 | 0.0 | 0.0 | 0.00 | 0.00 | 0.00 | 74 | 1019.3 |
| 20260506160520 | 54 | 245 | 0.0 | 0.0 | 0.00 | 0.00 | 0.00 | 75 | 1019.4 |
| 20260506160021 | 53 | 245 | 0.0 | 3.0 | 0.00 | 0.00 | 0.00 | 77 | 1019.4 |
| 20260506155519 | 53 | 245 | 0.0 | 4.0 | 0.00 | 0.00 | 0.00 | 79 | 1019.4 |
| 20260506155019 | 52 | 245 | 0.0 | 5.0 | 0.00 | 0.00 | 0.00 | 80 | 1019.5 |
| 20260506154520 | 52 | 245 | 0.0 | 4.0 | 0.00 | 0.00 | 0.00 | 85 | 1019.5 |
| 20260506154019 | 51 | 245 | 0.0 | 0.0 | 0.00 | 0.00 | 0.00 | 87 | 1019.6 |
| 20260506153519 | 51 | 245 | 0.0 | 0.0 | 0.00 | 0.00 | 0.00 | 89 | 1019.7 |
| 20260506130022 | 41 | 245 | 0.0 | 0.0 | 0.00 | 0.00 | 0.00 | 92 | 1018.9 |
| 20260506125518 | 41 | 245 | 0.0 | 0.0 | 0.00 | 0.00 | 0.00 | 92 | 1018.7 |
| 20260506125018 | 41 | 245 | 0.0 | 0.0 | 0.00 | 0.00 | 0.00 | 92 | 1018.7 |
| 20260506124521 | 41 | 245 | 0.0 | 0.0 | 0.00 | 0.00 | 0.00 | 92 | 1018.7 |
| 20260506124018 | 41 | 245 | 0.0 | 0.0 | 0.00 | 0.00 | 0.00 | 92 | 1018.7 |
| 20260506123517 | 41 | 245 | 0.0 | 0.0 | 0.00 | 0.00 | 0.00 | 91 | 1018.6 |
| 20260506123018 | 41 | 245 | 0.0 | 0.0 | 0.00 | 0.00 | 0.00 | 91 | 1018.6 |
| 20260506122518 | 41 | 245 | 0.0 | 0.0 | 0.00 | 0.00 | 0.00 | 91 | 1018.6 |
| 20260506122021 | 41 | 245 | 0.0 | 0.0 | 0.00 | 0.00 | 0.00 | 91 | 1018.5 |
| 20260506121518 | 41 | 245 | 0.0 | 0.0 | 0.00 | 0.00 | 0.00 | 91 | 1018.5 |
| 20260506121017 | 42 | 245 | 0.0 | 0.0 | 0.00 | 0.00 | 0.00 | 92 | 1018.5 |
| 20260506120522 | 41 | 245 | 0.0 | 0.0 | 0.00 | 0.00 | 0.00 | 92 | 1018.5 |
| 20260506120020 | 41 | 245 | 0.0 | 0.0 | 0.00 | 0.00 | 0.00 | 91 | 1018.5 |
| 20260506115518 | 41 | 245 | 0.0 | 0.0 | 0.00 | 0.00 | 0.00 | 91 | 1018.5 |
| 20260506115017 | 42 | 245 | 0.0 | 0.0 | 0.00 | 0.00 | 0.00 | 92 | 1018.5 |
| 20260506114532 | 41 | 245 | 0.0 | 0.0 | 0.00 | 0.00 | 0.00 | 91 | 1018.5 |
| 20260506114017 | 41 | 245 | 0.0 | 0.0 | 0.00 | 0.00 | 0.00 | 91 | 1018.4 |
| 20260506113521 | 41 | 245 | 0.0 | 0.0 | 0.00 | 0.00 | 0.00 | 91 | 1018.4 |
| 20260506113020 | 42 | 245 | 0.0 | 0.0 | 0.00 | 0.00 | 0.00 | 91 | 1018.3 |
| 20260506112521 | 42 | 245 | 0.0 | 0.0 | 0.00 | 0.00 | 0.00 | 91 | 1018.3 |
| 20260506112018 | 42 | 245 | 0.0 | 0.0 | 0.00 | 0.00 | 0.00 | 92 | 1018.2 |
| 20260506111517 | 42 | 245 | 0.0 | 0.0 | 0.00 | 0.00 | 0.00 | 92 | 1018.1 |
| 20260506111018 | 42 | 245 | 0.0 | 0.0 | 0.00 | 0.00 | 0.00 | 91 | 1018.0 |
| 20260506110521 | 42 | 245 | 0.0 | 0.0 | 0.00 | 0.00 | 0.00 | 91 | 1018.1 |
| 20260506110021 | 42 | 245 | 0.0 | 0.0 | 0.00 | 0.00 | 0.00 | 91 | 1018.1 |
| 20260506105524 | 42 | 245 | 0.0 | 0.0 | 0.00 | 0.00 | 0.00 | 91 | 1018.0 |
| 20260506105018 | 42 | 245 | 0.0 | 0.0 | 0.00 | 0.00 | 0.00 | 91 | 1017.9 |
| 20260506104517 | 42 | 245 | 0.0 | 0.0 | 0.00 | 0.00 | 0.00 | 91 | 1017.9 |
| 20260506104018 | 42 | 245 | 0.0 | 0.0 | 0.00 | 0.00 | 0.00 | 91 | 1017.8 |
| 20260506103521 | 42 | 245 | 0.0 | 0.0 | 0.00 | 0.00 | 0.00 | 91 | 1017.7 |
| 20260506103119 | 42 | 245 | 0.0 | 0.0 | 0.00 | 0.00 | 0.00 | 91 | 1017.7 |
| 20260506102519 | 42 | 245 | 0.0 | 0.0 | 0.00 | 0.00 | 0.00 | 91 | 1017.6 |
| 20260506102017 | 41 | 245 | 0.0 | 0.0 | 0.00 | 0.00 | 0.00 | 91 | 1017.6 |
| 20260506101519 | 42 | 245 | 0.0 | 0.0 | 0.00 | 0.00 | 0.00 | 91 | 1017.6 |
| 20260506101017 | 42 | 245 | 0.0 | 0.0 | 0.00 | 0.00 | 0.00 | 91 | 1017.6 |
| 20260506100518 | 42 | 245 | 0.0 | 0.0 | 0.00 | 0.00 | 0.00 | 91 | 1017.7 |
| 20260506100023 | 42 | 245 | 0.0 | 0.0 | 0.00 | 0.00 | 0.00 | 91 | 1017.7 |
| 20260506095518 | 42 | 245 | 0.0 | 0.0 | 0.00 | 0.00 | 0.00 | 91 | 1017.7 |
| 20260506095020 | 41 | 245 | 0.0 | 0.0 | 0.00 | 0.00 | 0.00 | 90 | 1017.7 |
| 20260506094519 | 42 | 245 | 0.0 | 0.0 | 0.00 | 0.00 | 0.00 | 91 | 1017.7 |
| 20260506094018 | 42 | 245 | 0.0 | 0.0 | 0.00 | 0.00 | 0.00 | 91 | 1017.8 |
| 20260506093520 | 42 | 245 | 0.0 | 0.0 | 0.00 | 0.00 | 0.00 | 91 | 1017.8 |
| 20260506093019 | 42 | 245 | 0.0 | 0.0 | 0.00 | 0.00 | 0.00 | 91 | 1017.9 |
| 20260506092524 | 42 | 251 | 0.0 | 0.0 | 0.00 | 0.00 | 0.00 | 91 | 1018.0 |
| 20260506092018 | 41 | 251 | 0.0 | 0.0 | 0.00 | 0.00 | 0.00 | 91 | 1018.1 |
| 20260506091521 | 41 | 251 | 0.0 | 0.0 | 0.00 | 0.00 | 0.00 | 91 | 1018.1 |
| 20260506091018 | 41 | 251 | 0.0 | 0.0 | 0.00 | 0.00 | 0.00 | 91 | 1018.1 |
| 20260506090517 | 41 | 251 | 0.0 | 0.0 | 0.00 | 0.00 | 0.00 | 91 | 1018.1 |
| 20260506090017 | 41 | 251 | 0.0 | 0.0 | 0.00 | 0.00 | 0.00 | 90 | 1018.1 |
| 20260506085517 | 41 | 251 | 0.0 | 0.0 | 0.00 | 0.00 | 0.00 | 90 | 1017.9 |
| 20260506085018 | 41 | 251 | 0.0 | 0.0 | 0.00 | 0.00 | 0.00 | 90 | 1017.9 |
| 20260506084518 | 42 | 251 | 0.0 | 0.0 | 0.00 | 0.00 | 0.00 | 90 | 1017.8 |
| 20260506084019 | 42 | 251 | 0.0 | 0.0 | 0.00 | 0.00 | 0.00 | 90 | 1017.9 |
| 20260506083620 | 42 | 251 | 0.0 | 0.0 | 0.00 | 0.00 | 0.00 | 90 | 1018.0 |
| 20260506083018 | 41 | 251 | 0.0 | 0.0 | 0.00 | 0.00 | 0.00 | 90 | 1018.1 |
| 20260506082517 | 42 | 251 | 0.0 | 0.0 | 0.00 | 0.00 | 0.00 | 89 | 1018.1 |
| 20260506082018 | 42 | 251 | 0.0 | 0.0 | 0.00 | 0.00 | 0.00 | 90 | 1018.1 |
| 20260506081519 | 42 | 251 | 0.0 | 0.0 | 0.00 | 0.00 | 0.00 | 90 | 1018.0 |
| 20260506081019 | 42 | 254 | 0.0 | 0.0 | 0.00 | 0.00 | 0.00 | 90 | 1018.0 |
| 20260506080518 | 42 | 254 | 0.0 | 0.0 | 0.00 | 0.00 | 0.00 | 89 | 1018.0 |
| 20260506073518 | 42 | 254 | 0.0 | 0.0 | 0.00 | 0.00 | 0.00 | 88 | 1017.6 |
| 20260506073018 | 42 | 254 | 0.0 | 0.0 | 0.00 | 0.00 | 0.00 | 88 | 1017.6 |
| 20260506072518 | 43 | 254 | 0.0 | 0.0 | 0.00 | 0.00 | 0.00 | 88 | 1017.4 |
| 20260506072019 | 43 | 254 | 0.0 | 0.0 | 0.00 | 0.00 | 0.00 | 88 | 1017.6 |
| 20260506071518 | 43 | 254 | 0.0 | 0.0 | 0.00 | 0.00 | 0.00 | 88 | 1017.4 |
| 20260506071018 | 43 | 254 | 0.0 | 0.0 | 0.00 | 0.00 | 0.00 | 88 | 1017.4 |
| 20260506070518 | 43 | 254 | 0.0 | 0.0 | 0.00 | 0.00 | 0.00 | 88 | 1017.2 |
| 20260506062019 | 44 | 254 | 0.0 | 0.0 | 0.00 | 0.00 | 0.00 | 87 | 1017.2 |
| 20260506061518 | 45 | 254 | 0.0 | 0.0 | 0.00 | 0.00 | 0.00 | 87 | 1017.1 |
| 20260506061019 | 44 | 254 | 0.0 | 0.0 | 0.00 | 0.00 | 0.00 | 86 | 1017.1 |
| 20260506060518 | 45 | 254 | 0.0 | 0.0 | 0.00 | 0.00 | 0.00 | 86 | 1017.1 |
| 20260506051018 | 46 | 255 | 0.0 | 0.0 | 0.00 | 0.00 | 0.00 | 84 | 1016.7 |
| 20260506050518 | 46 | 255 | 0.0 | 0.0 | 0.00 | 0.00 | 0.00 | 84 | 1016.7 |
| 20260506045018 | 46 | 296 | 0.0 | 0.0 | 0.00 | 0.00 | 0.00 | 82 | 1016.3 |
| 20260506044528 | 46 | 296 | 0.0 | 0.0 | 0.00 | 0.00 | 0.00 | 83 | 1016.3 |
| 20260506044018 | 47 | 296 | 0.0 | 0.0 | 0.00 | 0.00 | 0.00 | 82 | 1016.3 |
| 20260506043519 | 47 | 296 | 0.0 | 0.0 | 0.00 | 0.00 | 0.00 | 82 | 1016.2 |
| 20260506043019 | 47 | 296 | 0.0 | 0.0 | 0.00 | 0.00 | 0.00 | 80 | 1016.1 |
| 20260506042522 | 49 | 297 | 0.0 | 0.0 | 0.00 | 0.00 | 0.00 | 81 | 1016.1 |
| 20260506042019 | 49 | 297 | 0.0 | 0.0 | 0.00 | 0.00 | 0.00 | 80 | 1015.9 |
| 20260506041519 | 49 | 297 | 0.0 | 0.0 | 0.00 | 0.00 | 0.00 | 80 | 1015.9 |
| 20260506041018 | 50 | 297 | 0.0 | 0.0 | 0.00 | 0.00 | 0.00 | 81 | 1015.8 |
| 20260506040518 | 50 | 297 | 0.0 | 0.0 | 0.00 | 0.00 | 0.00 | 81 | 1015.8 |
| 20260506040018 | 50 | 297 | 0.0 | 0.0 | 0.00 | 0.00 | 0.00 | 81 | 1015.7 |
| 20260506035521 | 50 | 297 | 0.0 | 0.0 | 0.00 | 0.00 | 0.00 | 80 | 1015.6 |
| 20260506035018 | 50 | 297 | 0.0 | 0.0 | 0.00 | 0.00 | 0.00 | 79 | 1015.5 |
| 20260506034519 | 51 | 297 | 0.0 | 0.0 | 0.00 | 0.00 | 0.00 | 78 | 1015.5 |
| 20260506034018 | 51 | 297 | 0.0 | 0.0 | 0.00 | 0.00 | 0.00 | 78 | 1015.3 |
| 20260506033618 | 51 | 297 | 0.0 | 0.0 | 0.00 | 0.00 | 0.00 | 77 | 1015.2 |
| 20260506033028 | 51 | 297 | 0.0 | 0.0 | 0.00 | 0.00 | 0.00 | 76 | 1015.2 |
| 20260506032518 | 52 | 297 | 0.0 | 0.0 | 0.00 | 0.00 | 0.00 | 75 | 1015.1 |
| 20260506032019 | 52 | 297 | 0.0 | 0.0 | 0.00 | 0.00 | 0.00 | 74 | 1015.0 |
| 20260506031529 | 52 | 297 | 0.0 | 0.0 | 0.00 | 0.00 | 0.00 | 74 | 1014.9 |
| 20260506031019 | 52 | 297 | 0.0 | 0.0 | 0.00 | 0.00 | 0.00 | 73 | 1014.8 |
| 20260506030523 | 53 | 297 | 0.0 | 0.0 | 0.00 | 0.00 | 0.00 | 72 | 1014.7 |
| 20260506030041 | 53 | 297 | 0.0 | 0.0 | 0.00 | 0.00 | 0.00 | 72 | 1014.6 |
| 20260506025518 | 53 | 297 | 0.0 | 0.0 | 0.00 | 0.00 | 0.00 | 71 | 1014.6 |
| 20260506025022 | 53 | 297 | 0.0 | 0.0 | 0.00 | 0.00 | 0.00 | 71 | 1014.5 |
| 20260506024526 | 54 | 296 | 0.0 | 0.0 | 0.00 | 0.00 | 0.00 | 70 | 1014.5 |
| 20260506024018 | 54 | 296 | 0.0 | 0.0 | 0.00 | 0.00 | 0.00 | 69 | 1014.5 |
| 20260506023519 | 54 | 296 | 0.0 | 4.0 | 0.00 | 0.00 | 0.00 | 68 | 1014.5 |
| 20260506023019 | 55 | 296 | 0.0 | 4.0 | 0.00 | 0.00 | 0.00 | 67 | 1014.5 |
| 20260506022518 | 55 | 287 | 0.0 | 1.0 | 0.00 | 0.00 | 0.00 | 66 | 1014.4 |
| 20260506022019 | 56 | 289 | 0.0 | 2.0 | 0.00 | 0.00 | 0.00 | 65 | 1014.4 |
| 20260506021619 | 56 | 289 | 0.0 | 5.0 | 0.00 | 0.00 | 0.00 | 64 | 1014.4 |
| 20260506021019 | 56 | 297 | 1.0 | 5.0 | 0.00 | 0.00 | 0.00 | 64 | 1014.3 |
| 20260506020524 | 57 | 284 | 0.0 | 0.0 | 0.00 | 0.00 | 0.00 | 64 | 1014.3 |
| 20260506020019 | 57 | 284 | 0.0 | 0.0 | 0.00 | 0.00 | 0.00 | 64 | 1014.3 |
| 20260506015518 | 57 | 284 | 0.0 | 0.0 | 0.00 | 0.01 | 0.00 | 63 | 1014.3 |
| 20260506015019 | 56 | 284 | 0.0 | 0.0 | 0.00 | 0.01 | 0.00 | 63 | 1014.2 |
| 20260506014518 | 56 | 284 | 0.0 | 6.0 | 0.00 | 0.01 | 0.00 | 63 | 1014.2 |
| 20260506014018 | 56 | 283 | 1.0 | 6.0 | 0.00 | 0.01 | 0.00 | 63 | 1014.2 |
| 20260506013518 | 56 | 286 | 1.0 | 6.0 | 0.00 | 0.01 | 0.00 | 64 | 1014.2 |
| 20260506013019 | 56 | 293 | 0.0 | 6.0 | 0.00 | 0.01 | 0.00 | 63 | 1014.2 |
| 20260506012018 | 57 | 292 | 0.0 | 4.0 | 0.00 | 0.01 | 0.00 | 62 | 1014.3 |
| 20260506011529 | 57 | 289 | 0.0 | 5.0 | 0.00 | 0.01 | 0.00 | 62 | 1014.3 |
| 20260506011022 | 57 | 298 | 0.0 | 9.0 | 0.00 | 0.01 | 0.00 | 61 | 1014.3 |
| 20260506010518 | 57 | 307 | 1.0 | 9.0 | 0.00 | 0.01 | 0.00 | 61 | 1014.3 |
| 20260506010019 | 58 | 282 | 1.0 | 6.0 | 0.00 | 0.01 | 0.00 | 61 | 1014.4 |
| 20260506005519 | 58 | 339 | 0.0 | 7.0 | 0.00 | 0.05 | 0.00 | 58 | 1014.4 |
| 20260506005018 | 59 | 322 | 2.0 | 7.0 | 0.00 | 0.05 | 0.00 | 58 | 1014.3 |
| 20260506004533 | 59 | 343 | 0.0 | 4.0 | 0.00 | 0.05 | 0.00 | 59 | 1014.4 |
| 20260506004018 | 58 | 284 | 0.0 | 4.0 | 0.00 | 0.05 | 0.00 | 59 | 1014.4 |
| 20260506003519 | 58 | 301 | 0.0 | 9.0 | 0.00 | 0.05 | 0.00 | 60 | 1014.4 |
| 20260506003023 | 58 | 294 | 2.0 | 9.0 | 0.00 | 0.05 | 0.00 | 61 | 1014.3 |
| 20260506002518 | 58 | 276 | 0.0 | 7.0 | 0.00 | 0.05 | 0.00 | 59 | 1014.3 |
| 20260506002019 | 57 | 308 | 0.0 | 7.0 | 0.00 | 0.05 | 0.00 | 61 | 1014.3 |
| 20260506001522 | 57 | 322 | 2.0 | 7.0 | 0.00 | 0.05 | 0.00 | 60 | 1014.3 |
| 20260506001019 | 57 | 299 | 0.0 | 6.0 | 0.00 | 0.05 | 0.00 | 61 | 1014.3 |
| 20260506000519 | 57 | 303 | 1.0 | 6.0 | 0.00 | 0.05 | 0.00 | 61 | 1014.3 |
| 20260506000023 | 57 | 301 | 0.0 | 5.0 | 0.00 | 0.05 | 0.00 | 61 | 1014.3 |
| 20260505235519 | 56 | 328 | 2.0 | 6.0 | 0.00 | 0.05 | 0.00 | 63 | 1014.3 |
| 20260505235019 | 56 | 274 | 1.0 | 6.0 | 0.00 | 0.05 | 0.00 | 63 | 1014.3 |
| 20260505234519 | 56 | 329 | 1.0 | 6.0 | 0.00 | 0.05 | 0.00 | 64 | 1014.3 |
| 20260505234018 | 56 | 291 | 0.0 | 7.0 | 0.00 | 0.05 | 0.00 | 64 | 1014.4 |
| 20260505233521 | 56 | 266 | 1.0 | 7.0 | 0.00 | 0.05 | 0.00 | 64 | 1014.4 |
| 20260505233018 | 56 | 293 | 1.0 | 10.0 | 0.00 | 0.05 | 0.00 | 63 | 1014.4 |
| 20260505232519 | 56 | 332 | 1.0 | 10.0 | 0.00 | 0.05 | 0.00 | 62 | 1014.5 |
| 20260505232018 | 57 | 299 | 2.0 | 8.0 | 0.00 | 0.05 | 0.00 | 61 | 1014.5 |
| 20260505231525 | 56 | 287 | 0.0 | 9.0 | 0.00 | 0.05 | 0.00 | 62 | 1014.4 |
| 20260505231118 | 56 | 299 | 2.0 | 10.0 | 0.00 | 0.05 | 0.00 | 63 | 1014.3 |
| 20260505230519 | 56 | 314 | 3.0 | 11.0 | 0.00 | 0.05 | 0.00 | 62 | 1014.4 |
| 20260505230023 | 57 | 346 | 2.0 | 9.0 | 0.00 | 0.05 | 0.00 | 61 | 1014.3 |
| 20260505225518 | 56 | 333 | 3.0 | 9.0 | 0.00 | 0.05 | 0.00 | 62 | 1014.4 |
| 20260505225024 | 56 | 328 | 1.0 | 7.0 | 0.00 | 0.05 | 0.00 | 62 | 1014.3 |
| 20260505224519 | 56 | 303 | 1.0 | 7.0 | 0.00 | 0.05 | 0.00 | 62 | 1014.3 |
| 20260505224018 | 56 | 275 | 1.0 | 8.0 | 0.00 | 0.05 | 0.00 | 61 | 1014.5 |
| 20260505223520 | 56 | 322 | 4.0 | 10.0 | 0.00 | 0.05 | 0.00 | 60 | 1014.4 |
| 20260505223018 | 56 | 288 | 2.0 | 10.0 | 0.00 | 0.05 | 0.00 | 61 | 1014.4 |